Temp
17 17 17 17 18 18 19 19 20 19 19 19 18 18 18 18 18 18 18 18 18 18 18 17 17 17 16 16 16 16 16 15 15 15 15 15 15 15 15 15 14 14 14
16 17 17 17 17 18 18 19 20 20 19 19 18 18 18 18 18 18 17 17 18 18 18 18 18 17 17 17 16 16 16 16 15 15 15 15 15 15 15 15 14 14 14
15 16 16 16 17 17 18 18 19 18 18 19 18 18 18 18 18 18 18 18 18 18 19 18 18 18 17 17 17 17 17 16 16 16 16 15 15 15 15 14 15 15 14
16 16 15 16 16 16 16 17 17 17 17 18 18 18 17 17 17 17 17 17 17 18 18 19 19 19 18 17 17 17 17 17 17 17 16 16 16 16 16 15 15 14 15
15 14 14 15 15 16 16 15 16 16 17 17 17 17 17 17 17 17 17 17 18 18 18 18 19 19 19 18 18 17 17 17 17 17 17 17 16 16 16 16 15 15 14
13 14 14 14 14 15 15 15 15 16 16 16 16 16 17 17 17 17 17 17 17 18 18 18 18 18 18 18 18 18 18 17 17 17 17 17 17 17 16 16 16 15 14
13 12 12 13 13 13 13 13 14 14 14 14 14 15 16 16 16 17 17 17 17 18 18 18 17 17 17 18 18 18 18 18 17 17 17 17 17 17 17 17 16 15 15
11 12 11 11 11 11 12 11 12 11 13 13 13 14 12 14 16 16 16 16 16 16 16 16 16 17 16 17 17 18 18 18 17 17 17 17 17 17 17 16 16 16 15
9 9 10 9 10 11 10 9 9 10 10 10 11 12 13 12 13 15 15 15 15 16 16 17 16 16 16 16 16 17 17 18 18 18 17 17 17 17 17 17 16 16 16
8 7 7 8 8 7 8 8 8 8 9 8 10 10 10 10 12 12 15 14 14 14 15 16 16 16 16 16 15 16 16 17 17 18 17 17 17 17 17 17 17 16 16
7 7 7 7 7 7 6 6 7 7 7 7 6 7 8 8 9 9 10 10 10 12 13 14 15 15 16 16 17 16 17 16 17 17 17 17 17 17 17 16 17 16 16
6 6 6 7 6 7 7 7 7 6 6 5 5 5 5 7 7 7 8 8 8 9 10 12 14 14 15 15 16 16 17 17 17 17 16 16 17 17 17 16 17 16 16
6 6 6 6 5 6 6 6 6 5 5 5 4 4 4 5 5 5 7 6 7 8 10 12 11 11 9 9 11 14 15 16 16 16 15 16 16 16 16 16 16 16 16
5 6 6 5 5 5 5 5 5 5 4 4 4 4 4 4 4 4 3 4 5 8 9 9 10 8 7 7 7 9 12 14 15 15 15 15 15 15 16 16 16 15 16
5 5 5 5 5 4 4 4 4 3 3 3 3 3 3 3 3 3 3 3 4 5 6 9 7 6 5 5 6 7 8 9 12 13 14 14 15 15 15 15 15 15 16
5 4 4 4 4 4 4 3 3 3 3 2 2 2 2 2 2 2 2 2 2 3 4 5 4 3 3 3 5 5 7 7 10 11 12 13 13 13 13 14 15 15 15
4 4 3 3 3 3 3 2 2 2 2 2 2 1 1 1 1 2 2 2 2 2 2 2 2 2 2 3 3 5 6 6 7 8 9 11 12 12 13 13 14 13 15
3 3 3 2 2 2 2 2 1 1 1 1 0 0 0 0 1 1 1 2 2 2 2 1 1 2 1 2 2 3 4 5 5 6 7 8 10 11 12 12 13 13 13
3 2 2 2 2 2 2 1 1 1 1 0 -0 -0 -0 -0 -0 0 1 1 1 1 1 0 0 1 1 1 1 2 2 2 3 5 6 7 7 8 9 10 11 12 12
2 2 1 1 1 1 1 1 1 1 0 0 -0 -0 -1 -1 -1 -0 0 0 1 1 1 0 -0 -0 0 1 1 1 1 1 1 5 5 4 6 6 7 8 9 10 10
1 1 0 0 0 0 -0 0 0 0 0 -0 -0 -1 -1 -1 -2 -1 -1 -0 0 1 1 -0 -1 -0 -1 -0 -0 -0 0 -0 -0 3 2 2 3 4 5 6 7 7 8
1 0 0 -0 -0 -0 -1 -0 0 0 -0 -1 -1 -1 -1 -2 -2 -2 -1 -0 -0 -0 -0 -1 -1 -2 -1 -1 -1 -1 -1 -1 -1 0 -1 0 1 2 4 5 6 6 7
0 0 -0 -1 -1 -1 -1 -1 -0 -1 -1 -1 -2 -2 -2 -2 -2 -2 -1 -1 -1 -1 -1 -1 -1 -1 -1 -1 -1 -1 -1 -1 -1 -1 -1 -0 1 2 3 3 4 6 6
0 -0 -1 -1 -1 -1 -2 -1 -1 -1 -2 -2 -2 -2 -2 -3 -3 -2 -1 -1 -2 -2 -2 -2 -2 -1 -1 -1 -1 -1 -1 -1 -2 -1 -1 -1 1 1 2 3 4 5 5
-0 -1 -1 -1 -2 -2 -2 -2 -2 -2 -2 -2 -2 -3 -3 -3 -3 -2 -1 -2 -2 -2 -2 -2 -2 -2 -2 -1 -1 -1 -2 -3 -2 -1 -1 -1 -0 -1 1 4 3 3 4
-1 -1 -2 -2 -2 -2 -3 -3 -2 -3 -3 -3 -3 -3 -3 -3 -3 -2 -2 -2 -2 -3 -2 -2 -2 -2 -2 -2 -2 -2 -2 -3 -3 -3 -1 -2 -1 -2 -2 2 2 2 3
Height
793 792 792 791 791 790 790 789 788 789 790 790 792 793 793 794 795 796 796 797 798 799 800 801 801 802 802 803 804 804 804 805 806 807 808 808 809 809 809 809 810 810 811
791 789 787 787 786 787 786 785 784 784 784 785 785 788 788 789 790 790 791 791 793 794 795 796 797 798 798 799 800 800 802 802 802 803 804 805 805 806 806 807 807 807 808
786 785 784 782 782 782 782 781 781 780 780 780 780 782 783 784 785 785 786 786 787 788 789 790 791 792 794 795 795 795 796 798 798 798 799 800 801 802 803 804 804 804 805
783 781 780 778 778 778 778 778 777 777 778 777 777 778 779 780 780 780 781 781 781 781 781 782 783 784 787 788 789 790 790 790 792 792 793 794 795 797 798 799 800 801 801
779 778 776 774 773 774 774 775 775 775 774 774 775 775 775 775 775 775 776 776 775 775 775 774 774 775 777 778 781 782 783 784 785 786 787 787 788 789 792 794 795 796 797
776 774 773 772 769 770 770 771 771 772 771 771 770 770 771 771 770 769 769 769 769 768 767 767 767 767 768 770 772 772 775 776 778 779 780 781 782 783 784 786 789 792 792
777 774 773 771 770 769 769 768 767 769 769 769 768 766 765 764 764 763 763 761 761 761 761 760 759 759 759 761 762 764 766 767 769 772 773 773 774 776 778 779 780 784 786
778 775 773 772 771 770 769 770 768 768 768 766 767 767 765 761 757 758 758 758 756 756 755 754 753 752 751 751 751 754 756 759 761 763 764 765 767 768 770 771 773 775 779
781 779 775 774 773 771 770 772 772 765 767 767 768 770 765 765 759 753 753 753 752 750 749 748 747 745 744 743 743 744 746 748 750 753 755 756 758 759 762 763 765 767 770
784 782 779 777 776 774 773 772 772 771 766 769 766 769 769 770 764 752 749 749 748 746 743 742 741 739 738 737 736 736 736 737 739 741 744 746 748 750 752 754 757 759 762
787 786 784 782 780 779 778 772 770 774 768 771 772 768 768 769 766 764 751 750 746 744 739 737 737 733 731 730 728 727 726 727 728 729 731 734 737 739 742 745 748 751 753
791 789 787 785 784 782 780 778 774 777 772 776 771 773 775 774 765 763 757 753 745 740 737 729 728 727 725 722 716 715 716 716 717 718 721 724 726 729 732 735 738 741 743
793 791 789 788 787 786 783 780 779 776 771 773 773 777 776 772 768 766 759 754 744 736 734 729 727 723 720 717 713 711 707 707 707 708 711 713 715 716 720 724 728 731 734
794 792 790 789 787 785 783 781 778 778 780 779 776 771 769 770 769 765 764 760 747 740 733 729 724 720 718 717 710 704 698 700 699 699 700 702 703 706 709 713 717 721 725
793 790 788 786 784 783 781 780 778 777 776 774 772 771 771 769 766 763 760 756 754 745 736 727 724 720 719 718 711 707 697 694 690 690 691 692 693 696 698 702 705 711 715
794 792 789 787 784 782 780 779 777 776 774 774 772 771 769 766 762 759 756 755 754 749 740 730 726 724 720 715 709 703 695 688 683 683 682 683 683 685 688 690 695 700 704
794 792 790 787 785 783 781 780 778 776 775 773 770 768 765 763 761 759 757 754 751 747 741 731 728 723 718 713 708 700 696 695 684 682 675 676 673 671 676 680 684 688 695
793 791 789 787 785 783 781 779 778 776 774 772 770 767 764 761 759 757 753 751 748 745 742 734 728 722 716 711 707 701 695 693 687 685 676 672 667 669 668 672 675 681 686
791 789 788 786 784 782 780 778 776 773 772 770 768 765 762 760 756 754 751 749 746 743 740 737 729 724 718 712 706 701 697 691 688 684 680 673 669 666 665 667 668 675 679
790 788 786 784 782 780 778 776 775 773 771 769 766 763 760 758 756 754 751 747 744 741 738 735 730 724 719 713 709 704 697 693 689 685 682 678 671 669 666 665 666 667 670
788 786 784 782 781 779 777 776 773 771 769 767 765 762 759 757 755 753 749 746 743 739 736 733 729 725 720 715 712 708 704 698 692 688 684 679 675 671 668 667 664 664 666
785 784 782 779 778 776 775 773 771 768 767 765 763 761 758 755 752 749 747 744 742 738 735 732 728 725 720 717 712 709 705 700 694 689 685 677 675 671 667 663 664 663 663
782 781 779 778 775 773 772 771 769 766 764 762 760 757 754 752 749 746 743 740 738 736 733 730 726 723 718 715 711 707 704 702 697 689 686 676 674 670 666 663 662 661 659
779 777 776 774 772 770 768 767 766 763 761 759 756 754 751 749 746 743 739 736 734 731 729 726 723 719 716 712 709 705 701 697 694 691 687 679 672 667 663 659 658 658 657
775 774 772 771 769 767 765 765 763 761 758 756 753 751 748 745 743 740 736 732 729 726 725 722 719 715 712 709 706 701 698 695 690 686 683 679 674 668 662 655 655 654 653
772 770 768 767 766 764 762 761 760 758 755 753 750 748 746 743 740 737 733 729 725 722 719 715 712 710 707 703 701 698 696 693 690 685 681 680 677 675 668 658 654 653 652
Wind_Speed
22 22 23 23 24 23 23 23 24 26 26 24 25 26 25 26 26 26 26 24 24 25 26 25 26 25 23 21 22 22 22 21 20 19 18 17 16 15 14 13 13 13 13
22 23 25 26 26 27 27 24 24 26 25 24 23 26 27 28 27 26 27 25 25 25 26 29 29 30 27 24 23 24 25 25 23 22 22 21 20 19 17 16 15 15 15
23 24 24 28 28 28 27 27 25 21 21 21 20 22 22 23 24 24 26 25 24 25 27 28 31 31 33 30 27 26 27 29 28 26 26 25 24 23 21 20 18 18 17
22 25 25 26 28 26 25 26 24 20 18 18 16 16 18 19 21 21 21 23 26 27 28 27 32 36 34 36 33 31 31 32 33 31 30 29 27 26 25 23 22 21 20
19 19 22 24 24 24 22 18 18 17 17 17 16 16 18 19 19 21 23 25 26 28 31 33 32 35 38 37 40 38 35 35 35 36 33 31 31 29 29 26 25 24 23
12 14 14 15 17 19 20 19 17 17 16 15 14 15 19 21 23 26 28 29 31 32 32 33 35 36 38 42 43 43 41 37 38 38 38 37 35 34 32 31 30 26 25
15 14 12 9 4 7 5 6 8 11 9 6 7 10 16 20 26 28 30 29 29 30 32 33 35 38 41 44 48 45 47 42 41 40 40 40 39 39 37 35 33 31 29
15 13 9 10 8 5 7 13 6 8 4 4 3 6 3 5 12 16 20 25 28 29 32 33 34 36 39 43 44 46 47 50 46 43 41 43 43 41 40 40 37 34 33
15 14 14 12 9 10 11 12 11 11 8 13 12 4 2 3 8 15 15 20 24 30 34 34 35 36 37 39 42 45 48 48 51 48 44 43 45 44 44 40 39 37 36
17 18 18 15 13 13 12 10 10 11 10 8 9 9 12 10 4 7 8 19 22 28 33 37 36 38 39 40 40 42 44 46 49 51 49 48 45 44 43 44 41 40 38
20 18 19 19 19 18 14 14 14 14 13 8 9 9 10 13 4 4 6 7 21 23 24 25 33 38 40 42 42 45 45 46 45 46 46 48 48 46 45 43 43 42 40
19 19 18 17 16 16 16 16 16 14 13 7 10 9 7 5 8 5 5 11 8 13 32 25 32 35 39 43 47 49 49 48 46 46 43 43 46 46 45 45 44 45 44
18 18 17 16 15 13 13 13 11 13 15 13 11 10 8 7 10 10 11 9 5 12 9 19 22 15 24 26 25 40 50 48 49 46 41 43 46 46 46 45 43 44 45
14 14 15 14 14 14 12 11 10 9 7 7 7 11 12 9 10 5 8 10 8 5 13 6 20 20 34 39 35 33 25 41 42 44 42 44 43 40 41 46 45 44 44
12 14 15 16 15 15 14 14 13 13 11 10 9 8 9 7 6 10 11 11 9 5 7 9 12 23 34 31 34 34 29 29 35 41 40 43 44 45 41 45 42 46 43
8 10 11 12 13 13 13 11 12 14 14 13 13 12 11 11 11 12 12 9 11 12 6 16 25 26 31 32 29 35 34 34 22 24 39 39 38 40 37 40 42 41 39
10 11 11 11 11 11 11 8 11 12 13 13 14 13 11 10 11 13 14 11 13 13 7 22 25 27 25 27 29 30 28 26 29 27 16 23 25 37 34 38 38 37 38
10 9 10 10 11 11 10 8 12 12 13 14 16 16 15 14 14 14 14 13 16 14 15 15 24 25 27 27 28 26 23 24 27 29 26 22 12 20 24 25 27 27 28
10 9 10 11 12 13 11 10 12 12 11 12 14 15 15 15 15 16 18 15 19 13 15 16 20 23 23 25 29 24 27 26 28 27 21 19 17 13 6 13 20 28 29
8 8 9 9 11 11 10 10 12 12 11 12 11 14 15 14 14 17 17 18 19 15 17 17 16 19 20 23 20 22 26 27 30 17 17 19 18 17 15 12 7 13 20
7 8 8 9 10 10 9 11 11 11 11 11 10 13 16 13 12 14 16 18 19 19 17 16 14 15 14 19 18 20 20 23 26 12 24 30 31 27 20 18 15 11 8
7 8 8 8 9 9 7 10 10 12 11 11 10 13 14 14 15 16 14 14 14 17 17 12 14 13 15 18 18 18 18 18 7 11 29 27 25 23 26 22 19 19 16
8 9 8 10 9 9 8 10 11 10 9 10 12 15 16 15 16 18 17 17 18 16 15 18 20 20 20 21 23 20 18 16 16 28 24 21 22 22 20 20 21 20 19
9 10 9 10 11 10 9 10 11 11 12 13 15 15 14 17 19 18 21 20 21 22 22 20 21 23 25 26 25 23 17 23 20 21 19 9 23 26 23 22 20 19 20
9 9 10 10 11 11 11 12 13 15 16 15 15 14 15 19 19 19 21 22 25 25 25 21 20 21 22 22 22 22 21 14 10 18 21 8 10 18 22 17 12 10 11
10 10 10 10 11 12 11 11 12 13 15 17 18 17 20 18 19 20 20 22 19 23 27 27 25 25 24 25 22 20 19 15 11 7 3 15 19 14 8 12 17 25 24
Wind_Direction
289 285 279 279 274 271 266 264 257 252 249 250 251 249 250 253 258 263 268 265 258 253 252 250 246 244 244 243 240 242 244 241 241 242 242 245 247 246 246 244 242 240 240
299 293 284 279 277 268 266 265 262 257 253 251 251 252 255 256 258 261 265 267 263 260 259 256 254 249 244 244 244 244 247 247 242 241 243 245 245 247 247 246 244 241 240
292 301 297 283 279 274 266 261 259 257 254 244 247 254 260 263 265 267 270 272 267 264 262 263 256 254 247 246 246 245 247 250 250 247 244 244 247 249 246 245 245 244 241
297 298 296 296 283 279 274 259 254 251 251 252 253 259 266 270 272 273 273 274 273 270 266 266 258 251 252 248 248 248 245 244 250 249 247 246 246 249 248 247 247 244 243
302 308 299 303 288 268 268 256 255 249 246 252 258 265 271 272 274 277 274 272 271 272 272 272 266 257 248 247 249 249 246 247 247 251 250 248 246 243 245 245 247 244 241
328 324 317 304 289 276 269 257 260 261 254 256 261 267 271 275 276 274 273 275 276 276 273 269 268 264 255 249 249 248 248 246 247 247 251 251 249 246 244 244 245 242 237
356 359 345 321 310 279 274 258 258 250 250 253 293 282 283 279 274 272 274 275 276 277 278 274 268 265 262 255 254 254 248 249 244 244 248 250 251 250 247 244 242 241 236
21 16 17 21 26 46 29 10 26 356 278 58 7 305 302 321 273 274 276 273 271 271 273 277 273 270 264 259 259 257 252 250 245 244 245 247 248 251 248 247 244 237 237
39 38 42 52 51 52 59 52 36 44 37 0 352 302 304 263 329 292 289 284 284 284 281 279 279 276 270 263 259 257 258 256 252 248 245 245 246 249 249 245 242 240 234
42 44 41 42 43 39 46 53 45 38 58 37 26 352 337 328 300 306 299 307 300 289 278 275 272 273 273 267 260 259 258 258 258 256 250 246 242 243 243 244 242 240 237
39 39 42 41 40 39 36 37 29 21 37 31 17 360 338 334 360 307 306 328 319 306 303 285 269 268 266 269 270 268 263 259 259 260 258 246 241 242 240 241 240 238 236
40 42 46 46 41 36 32 33 37 30 34 30 25 13 346 323 345 324 307 316 307 316 316 311 280 267 268 263 262 263 263 262 260 260 255 252 241 243 242 240 240 236 234
31 28 32 35 37 36 34 32 32 28 25 21 23 6 358 342 335 310 311 321 306 310 298 328 346 322 360 347 311 267 263 262 264 261 253 253 251 248 239 239 242 239 237
19 14 16 20 24 26 31 37 49 36 22 8 3 8 358 347 342 344 327 312 314 297 297 294 314 341 344 341 339 346 293 265 267 268 260 254 250 248 244 237 243 244 238
6 1 1 3 6 10 16 21 28 25 25 18 11 3 356 348 338 326 331 313 302 318 311 294 346 335 338 335 339 336 348 341 271 267 264 256 249 254 247 248 237 240 241
360 356 355 356 358 1 3 8 14 14 15 16 8 1 356 350 347 347 346 325 310 288 289 316 323 328 331 328 336 340 346 341 349 288 261 258 254 252 247 247 234 243 238
350 351 355 355 357 359 359 0 6 4 7 7 6 360 356 352 345 340 336 319 315 316 294 313 319 323 330 332 335 339 351 340 343 350 348 282 270 251 250 241 231 231 236
345 346 346 346 347 350 350 344 350 350 355 359 358 356 353 347 341 341 341 331 328 329 326 314 321 325 330 337 336 342 343 346 339 338 346 343 305 269 237 218 221 226 226
342 342 341 343 342 340 341 342 343 342 342 348 351 355 350 346 342 344 340 330 329 317 328 323 316 324 325 338 338 341 344 343 341 341 345 351 360 353 310 254 249 246 241
330 333 335 333 332 336 331 338 335 331 331 335 342 353 353 345 343 338 337 330 326 310 322 325 321 321 330 337 343 347 345 349 341 346 342 345 348 346 358 354 299 252 244
321 325 330 336 338 342 344 338 334 331 327 323 327 343 347 344 334 331 324 327 332 320 313 320 316 316 324 337 345 337 334 334 333 326 338 336 332 328 330 330 336 332 312
319 328 331 335 338 339 335 327 327 327 328 323 327 334 338 338 335 335 333 327 325 331 318 313 307 308 310 318 324 326 330 336 333 321 330 321 330 320 316 312 315 315 317
321 325 325 327 330 333 333 329 327 323 330 326 325 328 328 330 330 331 330 325 324 323 315 311 307 304 305 312 317 313 319 316 307 309 319 312 322 320 320 312 298 295 305
312 318 322 324 324 326 325 328 327 324 325 321 321 322 323 326 326 322 319 321 321 320 319 314 303 302 304 306 306 304 308 310 313 314 326 298 309 310 328 313 300 289 284
302 308 314 314 316 318 324 323 320 317 319 318 319 316 320 317 318 317 315 316 315 313 317 311 305 303 303 306 307 306 302 311 308 310 318 287 344 339 328 321 1 1 320
292 292 299 304 311 309 318 319 315 315 313 315 316 313 320 315 314 313 311 311 305 306 314 314 313 311 310 311 305 297 289 282 288 310 276 352 336 3 323 307 317 327 329